Tekamah, NE

7:54 PM CDT on July 25, 2017 (GMT -0500)
Tekamah

Weather History for KTQE - December, 2013

Change the Weather History Date:

Sunday, December 1, 2013

  Actual Average Record
Temperature  
Mean Temperature 32 °F -  
Max Temperature 43 °F 39 °F 70 °F (1998)
Min Temperature 21 °F 22 °F -2 °F (1985)
Degree Days  
Heating Degree Days 33    
Moisture  
Dew Point 22 °F    
Average Humidity 70    
Maximum Humidity 89    
Minimum Humidity 49    
Precipitation  
Precipitation 0.00 in - - ()
Sea Level Pressure  
Sea Level Pressure 30.08 in    
Wind  
Wind Speed 4 mph (NE)    
Max Wind Speed 8 mph    
Max Gust Speed -    
Visibility 9 miles    
Events      
Averages and records for this station are not official NWS values.
T = Trace of Precipitation, MM = Missing Value Source: NWS Daily Summary

Daily Weather History Graph

Daily Weather History Graph

Search for Another Location

Airport or City:

Trip Planner

Search our weather history database for the weather conditions in past years. The results will help you decide how hot, cold, wet, or windy it might be!

Date:

Astronomy

Dec. 01, 2013 Rise Set
Actual Time 7:32 AM CST 4:54 PM CST
Civil Twilight 7:01 AM CST 5:25 PM CST
Nautical Twilight 6:27 AM CST 6:00 PM CST
Astronomical Twilight 5:53 AM CST 6:33 PM CST
Moon 5:50 AM CST (12/1) 4:06 PM CST (12/1)
Length of Visible Light 10h 24m
Length of Day
9h 22m
Waning Crescent, 2% of the Moon is Illuminated
Dec 1
Waning Crescent
Dec 2
New
Dec 9
First Quarter
Dec 17
Full
Dec 25
Last Quarter

Hourly Weather History & Observations

Time (CST) Temp. Windchill Dew Point Humidity Pressure Visibility Wind Dir Wind Speed Gust Speed Precip Events Conditions
12:54 AM 30.9 °F 26.2 °F 24.1 °F 76% 30.17 in 10.0 mi North 4.6 mph - N/A   Clear
1:54 AM 30.0 °F 25.2 °F 23.0 °F 75% 30.17 in 10.0 mi NNE 4.6 mph - N/A   Clear
2:54 AM 28.9 °F 21.1 °F 21.9 °F 75% 30.17 in 10.0 mi North 8.1 mph - N/A   Clear
3:54 AM 25.0 °F 18.1 °F 19.9 °F 81% 30.17 in 10.0 mi North 5.8 mph - N/A   Clear
4:54 AM 23.0 °F 18.4 °F 19.0 °F 85% 30.17 in 8.0 mi North 3.5 mph - N/A   Clear
5:54 AM 21.9 °F 15.7 °F 19.0 °F 89% 30.18 in 9.0 mi North 4.6 mph - N/A   Clear
6:54 AM 21.9 °F 13.4 °F 18.0 °F 85% 30.19 in 9.0 mi North 6.9 mph - N/A   Clear
7:54 AM 24.1 °F 17.0 °F 19.0 °F 81% 30.20 in 7.0 mi North 5.8 mph - N/A   Clear
8:54 AM 27.0 °F - 21.9 °F 81% 30.20 in 8.0 mi Calm Calm - N/A   Clear
9:54 AM 32.0 °F 27.5 °F 24.1 °F 73% 30.18 in 8.0 mi NNE 4.6 mph - N/A   Clear
10:54 AM 34.0 °F - 24.1 °F 67% 30.17 in 10.0 mi Calm Calm - N/A   Clear
11:54 AM 37.9 °F - 25.0 °F 60% 30.12 in 10.0 mi Calm Calm - N/A   Clear
12:54 PM 41.0 °F - 25.0 °F 53% 30.09 in 10.0 mi Calm Calm - N/A   Clear
1:54 PM 43.0 °F 41.3 °F 25.0 °F 49% 30.05 in 10.0 mi East 3.5 mph - N/A   Mostly Cloudy
2:54 PM 43.0 °F 40.3 °F 25.0 °F 49% 30.02 in 10.0 mi East 4.6 mph - N/A   Overcast
3:54 PM 42.1 °F 39.2 °F 25.0 °F 51% 30.00 in 10.0 mi ENE 4.6 mph - N/A   Overcast
4:54 PM 41.0 °F 38.0 °F 25.0 °F 53% 30.00 in 10.0 mi NNE 4.6 mph - N/A   Scattered Clouds
5:54 PM 37.9 °F 35.5 °F 25.0 °F 60% 29.99 in 10.0 mi North 3.5 mph - N/A   Overcast
6:54 PM 34.0 °F - 24.1 °F 67% 29.97 in 10.0 mi Calm Calm - N/A   Scattered Clouds
7:54 PM 30.0 °F - 21.9 °F 72% 29.96 in 9.0 mi Calm Calm - N/A   Clear
8:54 PM 28.9 °F 22.8 °F 21.0 °F 72% 29.94 in 9.0 mi SE 5.8 mph - N/A   Clear
9:54 PM 30.0 °F - 21.9 °F 72% 29.93 in 10.0 mi Calm Calm - N/A   Clear
10:54 PM 27.0 °F 21.6 °F 19.9 °F 75% 29.89 in 9.0 mi SSE 4.6 mph - N/A   Clear
11:54 PM 28.0 °F 20.8 °F 21.9 °F 78% 29.88 in 9.0 mi SSE 6.9 mph - N/A   Clear